Time,TemperatureF,DewpointF,PressureIn,WindDirection,WindDirectionDegrees,WindSpeedMPH,WindSpeedGustMPH,Humidity,HourlyPrecipIn,Conditions,Clouds,dailyrainin,SoftwareType,DateUTC
2013-05-12 00:01:00,40.3,16.7,30.17,North,357,0.0,0.0,38,0.00,,,0.00,VWS V14.01,2013-05-12 05:01:00,
2013-05-12 00:07:00,39.7,16.2,30.17,North,357,0.0,0.0,38,0.00,,,0.00,VWS V14.01,2013-05-12 05:07:00,
2013-05-12 00:12:00,39.6,16.1,30.17,North,357,0.0,0.0,38,0.00,,,0.00,VWS V14.01,2013-05-12 05:12:00,
2013-05-12 00:17:00,39.4,16.5,30.17,North,357,0.0,0.0,39,0.00,,,0.00,VWS V14.01,2013-05-12 05:17:00,
2013-05-12 00:22:00,39.4,16.5,30.17,North,357,0.0,0.0,39,0.00,,,0.00,VWS V14.01,2013-05-12 05:22:00,
2013-05-12 00:28:00,39.2,16.9,30.17,North,357,0.0,0.0,40,0.00,,,0.00,VWS V14.01,2013-05-12 05:28:00,
2013-05-12 00:33:00,39.4,17.1,30.17,North,357,0.0,0.0,40,0.00,,,0.00,VWS V14.01,2013-05-12 05:33:00,
2013-05-12 00:39:00,39.4,17.7,30.17,North,357,0.0,0.0,41,0.00,,,0.00,VWS V14.01,2013-05-12 05:39:00,
2013-05-12 00:45:00,39.2,17.5,30.17,North,357,0.0,0.0,41,0.00,,,0.00,VWS V14.01,2013-05-12 05:45:00,
2013-05-12 00:50:00,38.8,17.7,30.17,North,357,0.0,0.0,42,0.00,,,0.00,VWS V14.01,2013-05-12 05:50:00,
2013-05-12 00:55:00,38.7,17.6,30.17,North,357,0.0,0.0,42,0.00,,,0.00,VWS V14.01,2013-05-12 05:55:00,
2013-05-12 01:00:00,38.7,18.1,30.17,North,357,0.0,0.0,43,0.00,,,0.00,VWS V14.01,2013-05-12 06:00:00,
2013-05-12 01:06:00,38.5,17.9,30.17,North,357,0.0,0.0,43,0.00,,,0.00,VWS V14.01,2013-05-12 06:06:00,
2013-05-12 01:11:00,38.5,17.9,30.17,North,357,0.0,0.0,43,0.00,,,0.00,VWS V14.01,2013-05-12 06:11:00,
2013-05-12 01:17:00,38.1,18.1,30.17,North,357,0.0,0.0,44,0.00,,,0.00,VWS V14.01,2013-05-12 06:17:00,
2013-05-12 01:22:00,38.3,18.3,30.17,North,357,0.0,0.0,44,0.00,,,0.00,VWS V14.01,2013-05-12 06:22:00,
2013-05-12 01:28:00,38.3,18.3,30.17,North,357,0.0,0.0,44,0.00,,,0.00,VWS V14.01,2013-05-12 06:28:00,
2013-05-12 01:33:00,38.1,17.6,30.17,North,357,0.0,0.0,43,0.00,,,0.00,VWS V14.01,2013-05-12 06:33:00,
2013-05-12 01:38:00,37.9,18.5,30.17,North,357,0.0,0.0,45,0.00,,,0.00,VWS V14.01,2013-05-12 06:38:00,
2013-05-12 01:44:00,37.9,18.0,30.17,North,357,0.0,0.0,44,0.00,,,0.00,VWS V14.01,2013-05-12 06:44:00,
2013-05-12 01:49:00,37.9,17.5,30.17,North,357,0.0,0.0,43,0.00,,,0.00,VWS V14.01,2013-05-12 06:49:00,
2013-05-12 01:55:00,37.9,17.5,30.17,North,357,0.0,0.0,43,0.00,,,0.00,VWS V14.01,2013-05-12 06:55:00,
2013-05-12 02:00:00,37.8,17.3,30.17,North,357,0.0,0.0,43,0.00,,,0.00,VWS V14.01,2013-05-12 07:00:00,
2013-05-12 02:06:00,37.6,17.7,30.17,North,357,0.0,0.0,44,0.00,,,0.00,VWS V14.01,2013-05-12 07:06:00,
2013-05-12 02:11:00,37.4,17.5,30.17,North,357,0.0,0.0,44,0.00,,,0.00,VWS V14.01,2013-05-12 07:11:00,
2013-05-12 02:17:00,37.0,17.7,30.17,North,357,0.0,0.0,45,0.00,,,0.00,VWS V14.01,2013-05-12 07:17:00,
2013-05-12 02:23:00,37.2,17.9,30.17,North,357,0.0,0.0,45,0.00,,,0.00,VWS V14.01,2013-05-12 07:23:00,
2013-05-12 02:28:00,37.4,17.5,30.17,North,357,0.0,0.0,44,0.00,,,0.00,VWS V14.01,2013-05-12 07:28:00,
2013-05-12 02:34:00,37.8,17.3,30.17,North,357,0.0,0.0,43,0.00,,,0.00,VWS V14.01,2013-05-12 07:34:00,
2013-05-12 02:40:00,38.1,17.1,30.17,North,357,0.0,0.0,42,0.00,,,0.00,VWS V14.01,2013-05-12 07:40:00,
2013-05-12 02:45:00,38.1,17.1,30.17,North,357,0.0,0.0,42,0.00,,,0.00,VWS V14.01,2013-05-12 07:45:00,
2013-05-12 02:51:00,38.1,17.1,30.17,North,357,0.0,0.0,42,0.00,,,0.00,VWS V14.01,2013-05-12 07:51:00,
2013-05-12 02:56:00,37.9,16.4,30.17,North,357,0.0,0.0,41,0.00,,,0.00,VWS V14.01,2013-05-12 07:56:00,
2013-05-12 03:01:00,37.6,16.6,30.17,North,357,0.0,0.0,42,0.00,,,0.00,VWS V14.01,2013-05-12 08:01:00,
2013-05-12 03:06:00,37.0,17.2,30.17,North,357,0.0,0.0,44,0.00,,,0.00,VWS V14.01,2013-05-12 08:06:00,
2013-05-12 03:11:00,36.9,17.5,30.17,North,357,0.0,0.0,45,0.00,,,0.00,VWS V14.01,2013-05-12 08:11:00,
2013-05-12 03:17:00,36.7,17.4,30.17,North,357,0.0,0.0,45,0.00,,,0.00,VWS V14.01,2013-05-12 08:17:00,
2013-05-12 03:22:00,36.3,17.0,30.17,North,357,0.0,0.0,45,0.00,,,0.00,VWS V14.01,2013-05-12 08:22:00,
2013-05-12 03:27:00,36.3,17.5,30.17,North,357,0.0,0.0,46,0.00,,,0.00,VWS V14.01,2013-05-12 08:27:00,
2013-05-12 03:32:00,36.3,17.5,30.17,North,357,0.0,0.0,46,0.00,,,0.00,VWS V14.01,2013-05-12 08:32:00,
2013-05-12 03:37:00,36.3,17.0,30.17,North,357,0.0,0.0,45,0.00,,,0.00,VWS V14.01,2013-05-12 08:37:00,
2013-05-12 03:43:00,36.1,17.4,30.17,North,357,0.0,0.0,46,0.00,,,0.00,VWS V14.01,2013-05-12 08:43:00,
2013-05-12 03:48:00,35.8,17.0,30.17,North,357,0.0,0.0,46,0.00,,,0.00,VWS V14.01,2013-05-12 08:48:00,
2013-05-12 03:54:00,35.6,17.9,30.17,North,357,0.0,0.0,48,0.00,,,0.00,VWS V14.01,2013-05-12 08:54:00,
2013-05-12 03:59:00,35.4,18.2,30.17,North,357,0.0,0.0,49,0.00,,,0.00,VWS V14.01,2013-05-12 08:59:00,
2013-05-12 04:05:00,35.2,18.0,30.17,North,357,0.0,0.0,49,0.00,,,0.00,VWS V14.01,2013-05-12 09:05:00,
2013-05-12 04:10:00,35.1,18.8,30.17,North,357,0.0,0.0,51,0.00,,,0.00,VWS V14.01,2013-05-12 09:10:00,
2013-05-12 04:16:00,34.9,18.6,30.17,North,357,0.0,0.0,51,0.00,,,0.00,VWS V14.01,2013-05-12 09:16:00,
2013-05-12 04:22:00,34.9,18.6,30.17,North,357,0.0,0.0,51,0.00,,,0.00,VWS V14.01,2013-05-12 09:22:00,
2013-05-12 04:27:00,34.9,18.6,30.17,North,357,0.0,0.0,51,0.00,,,0.00,VWS V14.01,2013-05-12 09:27:00,
2013-05-12 04:33:00,34.9,18.6,30.17,North,357,0.0,0.0,51,0.00,,,0.00,VWS V14.01,2013-05-12 09:33:00,
2013-05-12 04:38:00,34.7,18.4,30.17,North,357,0.0,0.0,51,0.00,,,0.00,VWS V14.01,2013-05-12 09:38:00,
2013-05-12 04:43:00,34.7,18.9,30.17,North,357,0.0,0.0,52,0.00,,,0.00,VWS V14.01,2013-05-12 09:43:00,
2013-05-12 04:48:00,34.5,19.2,30.17,North,357,0.0,0.0,53,0.00,,,0.00,VWS V14.01,2013-05-12 09:48:00,
2013-05-12 04:53:00,34.5,19.2,30.17,North,357,0.0,0.0,53,0.00,,,0.00,VWS V14.01,2013-05-12 09:53:00,
2013-05-12 04:59:00,34.5,19.2,30.17,North,357,0.0,0.0,53,0.00,,,0.00,VWS V14.01,2013-05-12 09:59:00,
2013-05-12 05:05:00,34.5,18.7,30.17,North,357,0.0,0.0,52,0.00,,,0.00,VWS V14.01,2013-05-12 10:05:00,
2013-05-12 05:11:00,34.9,19.1,30.17,North,357,0.0,0.0,52,0.00,,,0.00,VWS V14.01,2013-05-12 10:11:00,
2013-05-12 05:16:00,34.7,18.9,30.17,North,357,0.0,0.0,52,0.00,,,0.00,VWS V14.01,2013-05-12 10:16:00,
2013-05-12 05:22:00,34.3,18.1,30.17,WNW,301,0.0,0.0,51,0.00,,,0.00,VWS V14.01,2013-05-12 10:22:00,
2013-05-12 05:28:00,34.0,17.8,30.17,WNW,301,0.0,0.0,51,0.00,,,0.00,VWS V14.01,2013-05-12 10:28:00,
2013-05-12 05:33:00,33.4,17.7,30.17,WNW,301,0.0,0.0,52,0.00,,,0.00,VWS V14.01,2013-05-12 10:33:00,
2013-05-12 05:39:00,33.3,17.5,30.17,WNW,301,0.0,0.0,52,0.00,,,0.00,VWS V14.01,2013-05-12 10:39:00,
2013-05-12 05:44:00,33.1,17.8,30.20,WNW,301,0.0,0.0,53,0.00,,,0.00,VWS V14.01,2013-05-12 10:44:00,
2013-05-12 05:49:00,32.9,17.2,30.20,WNW,301,0.0,0.0,52,0.00,,,0.00,VWS V14.01,2013-05-12 10:49:00,
2013-05-12 05:54:00,32.7,17.0,30.20,WNW,301,0.0,0.0,52,0.00,,,0.00,VWS V14.01,2013-05-12 10:54:00,
2013-05-12 06:00:00,32.5,17.3,30.20,WNW,301,0.0,0.0,53,0.00,,,0.00,VWS V14.01,2013-05-12 11:00:00,
2013-05-12 06:05:00,32.5,17.8,30.20,WNW,301,0.0,0.0,54,0.00,,,0.00,VWS V14.01,2013-05-12 11:05:00,
2013-05-12 06:10:00,32.5,17.8,30.20,WNW,301,0.0,0.0,54,0.00,,,0.00,VWS V14.01,2013-05-12 11:10:00,
2013-05-12 06:15:00,32.5,17.8,30.20,WNW,301,0.0,0.0,54,0.00,,,0.00,VWS V14.01,2013-05-12 11:15:00,
2013-05-12 06:21:00,32.7,18.4,30.20,WNW,301,0.0,0.0,55,0.00,,,0.00,VWS V14.01,2013-05-12 11:21:00,
2013-05-12 06:26:00,33.1,18.7,30.20,WNW,301,0.0,0.0,55,0.00,,,0.00,VWS V14.01,2013-05-12 11:26:00,
2013-05-12 06:32:00,33.3,19.3,30.20,WNW,301,0.0,0.0,56,0.00,,,0.00,VWS V14.01,2013-05-12 11:32:00,
2013-05-12 06:37:00,33.6,19.6,30.20,WNW,301,0.0,0.0,56,0.00,,,0.00,VWS V14.01,2013-05-12 11:37:00,
2013-05-12 06:43:00,34.0,20.0,30.20,WNW,301,0.0,0.0,56,0.00,,,0.00,VWS V14.01,2013-05-12 11:43:00,
2013-05-12 06:48:00,34.3,20.7,30.20,WNW,301,0.0,0.0,57,0.00,,,0.00,VWS V14.01,2013-05-12 11:48:00,
2013-05-12 06:54:00,34.9,21.2,30.20,WNW,301,0.0,0.0,57,0.00,,,0.00,VWS V14.01,2013-05-12 11:54:00,
2013-05-12 06:59:00,35.4,21.7,30.20,WNW,301,0.0,0.0,57,0.00,,,0.00,VWS V14.01,2013-05-12 11:59:00,
2013-05-12 07:04:00,36.0,22.2,30.20,WNW,301,0.0,0.0,57,0.00,,,0.00,VWS V14.01,2013-05-12 12:04:00,
2013-05-12 07:10:00,37.0,23.2,30.20,WNW,301,0.0,0.0,57,0.00,,,0.00,VWS V14.01,2013-05-12 12:10:00,
2013-05-12 07:15:00,38.1,21.6,30.20,WNW,301,0.0,0.0,51,0.00,,,0.00,VWS V14.01,2013-05-12 12:15:00,
2013-05-12 07:20:00,39.0,20.0,30.20,WNW,301,0.0,0.0,46,0.00,,,0.00,VWS V14.01,2013-05-12 12:20:00,
2013-05-12 07:25:00,39.9,19.2,30.20,NNW,344,0.0,0.0,43,0.00,,,0.00,VWS V14.01,2013-05-12 12:25:00,
2013-05-12 07:31:00,40.6,19.4,30.23,NW,312,0.0,0.0,42,0.00,,,0.00,VWS V14.01,2013-05-12 12:31:00,
2013-05-12 07:36:00,41.2,18.7,30.23,NW,312,0.0,0.0,40,0.00,,,0.00,VWS V14.01,2013-05-12 12:36:00,
2013-05-12 07:42:00,41.7,18.6,30.23,NW,312,0.0,0.0,39,0.00,,,0.00,VWS V14.01,2013-05-12 12:42:00,
2013-05-12 07:47:00,42.1,19.5,30.23,NW,312,0.0,0.0,40,0.00,,,0.00,VWS V14.01,2013-05-12 12:47:00,
2013-05-12 07:53:00,43.0,19.7,30.23,NW,312,0.0,0.0,39,0.00,,,0.00,VWS V14.01,2013-05-12 12:53:00,
2013-05-12 07:58:00,43.7,20.4,30.23,NW,312,0.0,0.0,39,0.00,,,0.00,VWS V14.01,2013-05-12 12:58:00,
2013-05-12 08:04:00,44.8,20.7,30.23,NW,312,0.0,2.2,38,0.00,,,0.00,VWS V14.01,2013-05-12 13:04:00,
2013-05-12 08:09:00,45.3,21.2,30.23,NW,312,0.0,0.0,38,0.00,,,0.00,VWS V14.01,2013-05-12 13:09:00,
2013-05-12 08:14:00,46.0,21.9,30.23,NW,312,0.0,0.0,38,0.00,,,0.00,VWS V14.01,2013-05-12 13:14:00,
2013-05-12 08:20:00,46.8,20.6,30.23,NNW,330,0.0,2.7,35,0.00,,,0.00,VWS V14.01,2013-05-12 13:20:00,
2013-05-12 08:25:00,47.3,21.7,30.23,North,357,0.0,0.0,36,0.00,,,0.00,VWS V14.01,2013-05-12 13:25:00,
2013-05-12 08:31:00,48.4,22.0,30.23,WNW,299,0.0,3.6,35,0.00,,,0.00,VWS V14.01,2013-05-12 13:31:00,
2013-05-12 08:36:00,49.6,23.1,30.23,WNW,299,0.0,0.0,35,0.00,,,0.00,VWS V14.01,2013-05-12 13:36:00,
2013-05-12 08:42:00,50.5,21.8,30.23,NW,308,0.0,0.0,32,0.00,,,0.00,VWS V14.01,2013-05-12 13:42:00,
2013-05-12 08:47:00,50.7,19.6,30.23,East,83,0.0,0.0,29,0.00,,,0.00,VWS V14.01,2013-05-12 13:47:00,
2013-05-12 08:53:00,51.3,20.9,30.23,NNW,339,0.0,0.0,30,0.00,,,0.00,VWS V14.01,2013-05-12 13:53:00,
2013-05-12 08:59:00,51.8,20.6,30.23,NNE,23,0.0,0.0,29,0.00,,,0.00,VWS V14.01,2013-05-12 13:59:00,
2013-05-12 09:04:00,52.7,20.5,30.23,NE,54,0.0,0.0,28,0.00,,,0.00,VWS V14.01,2013-05-12 14:04:00,
2013-05-12 09:09:00,52.7,19.7,30.23,North,3,0.0,0.0,27,0.00,,,0.00,VWS V14.01,2013-05-12 14:09:00,
2013-05-12 09:14:00,52.3,19.4,30.23,East,88,0.0,0.0,27,0.00,,,0.00,VWS V14.01,2013-05-12 14:14:00,
2013-05-12 09:20:00,53.6,20.5,30.23,ENE,71,0.0,0.0,27,0.00,,,0.00,VWS V14.01,2013-05-12 14:20:00,
2013-05-12 09:25:00,53.6,19.6,30.23,SSE,159,0.0,0.0,26,0.00,,,0.00,VWS V14.01,2013-05-12 14:25:00,
2013-05-12 09:31:00,54.7,20.5,30.23,North,11,7.2,7.2,26,0.00,,,0.00,VWS V14.01,2013-05-12 14:31:00,
2013-05-12 09:37:00,54.5,21.2,30.23,ENE,71,0.0,0.0,27,0.00,,,0.00,VWS V14.01,2013-05-12 14:37:00,
2013-05-12 09:42:00,55.9,21.6,30.23,ENE,64,0.0,0.0,26,0.00,,,0.00,VWS V14.01,2013-05-12 14:42:00,
2013-05-12 09:47:00,56.7,22.2,30.23,NW,317,0.0,0.0,26,0.00,,,0.00,VWS V14.01,2013-05-12 14:47:00,
2013-05-12 09:52:00,57.4,22.8,30.23,ESE,112,0.0,0.0,26,0.00,,,0.00,VWS V14.01,2013-05-12 14:52:00,
2013-05-12 09:58:00,56.3,21.0,30.23,NNE,25,0.0,0.0,25,0.00,,,0.00,VWS V14.01,2013-05-12 14:58:00,
2013-05-12 10:03:00,56.3,21.0,30.23,NNW,338,7.2,7.2,25,0.00,,,0.00,VWS V14.01,2013-05-12 15:03:00,
2013-05-12 10:08:00,57.4,21.9,30.23,NNW,331,0.0,0.0,25,0.00,,,0.00,VWS V14.01,2013-05-12 15:08:00,
2013-05-12 10:14:00,56.1,20.8,30.23,North,357,5.4,5.4,25,0.00,,,0.00,VWS V14.01,2013-05-12 15:14:00,
2013-05-12 10:20:00,57.0,21.6,30.23,West,263,0.0,0.0,25,0.00,,,0.00,VWS V14.01,2013-05-12 15:20:00,
2013-05-12 10:25:00,57.6,21.1,30.23,ENE,57,0.0,3.1,24,0.00,,,0.00,VWS V14.01,2013-05-12 15:25:00,
2013-05-12 10:30:00,58.5,22.8,30.23,NW,321,6.3,6.3,25,0.00,,,0.00,VWS V14.01,2013-05-12 15:30:00,
2013-05-12 10:36:00,58.5,21.8,30.23,NNE,16,5.4,5.4,24,0.00,,,0.00,VWS V14.01,2013-05-12 15:36:00,
2013-05-12 10:41:00,58.5,21.8,30.23,NE,51,5.4,5.4,24,0.00,,,0.00,VWS V14.01,2013-05-12 15:41:00,
2013-05-12 10:47:00,58.1,19.5,30.23,NE,48,0.0,4.0,22,0.00,,,0.00,VWS V14.01,2013-05-12 15:47:00,
2013-05-12 10:52:00,57.2,15.3,30.23,NE,39,0.0,3.1,19,0.00,,,0.00,VWS V14.01,2013-05-12 15:52:00,
2013-05-12 10:58:00,57.6,19.0,30.23,NE,48,0.0,2.2,22,0.00,,,0.00,VWS V14.01,2013-05-12 15:58:00,
2013-05-12 11:03:00,58.1,19.5,30.23,NNW,330,6.3,6.3,22,0.00,,,0.00,VWS V14.01,2013-05-12 16:03:00,
2013-05-12 11:09:00,59.2,17.0,30.23,NE,41,0.0,0.0,19,0.00,,,0.00,VWS V14.01,2013-05-12 16:09:00,
2013-05-12 11:14:00,59.7,17.4,30.23,ENE,62,7.2,7.2,19,0.00,,,0.00,VWS V14.01,2013-05-12 16:14:00,
2013-05-12 11:19:00,59.0,16.8,30.23,NW,317,7.2,7.2,19,0.00,,,0.00,VWS V14.01,2013-05-12 16:19:00,
2013-05-12 11:25:00,59.9,17.6,30.23,NNE,12,7.2,7.2,19,0.00,,,0.00,VWS V14.01,2013-05-12 16:25:00,
2013-05-12 11:30:00,60.3,17.9,30.23,NNE,25,4.5,4.5,19,0.00,,,0.00,VWS V14.01,2013-05-12 16:30:00,
2013-05-12 11:36:00,59.4,17.1,30.23,NNE,23,0.0,0.0,19,0.00,,,0.00,VWS V14.01,2013-05-12 16:36:00,
2013-05-12 11:41:00,59.5,17.3,30.23,North,7,0.0,3.1,19,0.00,,,0.00,VWS V14.01,2013-05-12 16:41:00,
2013-05-12 11:46:00,60.1,17.7,30.23,NNW,339,6.3,6.3,19,0.00,,,0.00,VWS V14.01,2013-05-12 16:46:00,
2013-05-12 11:51:00,59.7,17.4,30.23,NNE,18,7.2,7.2,19,0.00,,,0.00,VWS V14.01,2013-05-12 16:51:00,
2013-05-12 11:57:00,60.4,18.0,30.23,NNE,16,5.4,5.4,19,0.00,,,0.00,VWS V14.01,2013-05-12 16:57:00,
2013-05-12 12:02:00,61.3,18.8,30.23,NNE,18,7.2,7.2,19,0.00,,,0.00,VWS V14.01,2013-05-12 17:02:00,
2013-05-12 12:07:00,60.6,18.2,30.23,WNW,298,0.0,2.2,19,0.00,,,0.00,VWS V14.01,2013-05-12 17:07:00,
2013-05-12 12:12:00,61.3,14.8,30.23,NNE,17,4.5,4.5,16,0.00,,,0.00,VWS V14.01,2013-05-12 17:12:00,
2013-05-12 12:17:00,62.4,19.6,30.23,NW,318,8.1,8.1,19,0.00,,,0.00,VWS V14.01,2013-05-12 17:17:00,
2013-05-12 12:22:00,61.9,15.2,30.23,SE,143,0.0,0.0,16,0.00,,,0.00,VWS V14.01,2013-05-12 17:22:00,
2013-05-12 12:28:00,62.1,15.4,30.20,NE,48,0.0,3.1,16,0.00,,,0.00,VWS V14.01,2013-05-12 17:28:00,
2013-05-12 12:33:00,61.7,15.1,30.20,NNE,31,5.4,5.4,16,0.00,,,0.00,VWS V14.01,2013-05-12 17:33:00,
2013-05-12 12:39:00,61.2,14.6,30.20,NNE,16,0.0,0.0,16,0.00,,,0.00,VWS V14.01,2013-05-12 17:39:00,
2013-05-12 12:44:00,61.5,18.9,30.20,NE,35,0.0,2.7,19,0.00,,,0.00,VWS V14.01,2013-05-12 17:44:00,
2013-05-12 12:50:00,61.9,15.2,30.20,ENE,61,0.0,3.1,16,0.00,,,0.00,VWS V14.01,2013-05-12 17:50:00,
2013-05-12 12:55:00,63.3,19.1,30.20,NNW,333,0.0,0.0,18,0.00,,,0.00,VWS V14.01,2013-05-12 17:55:00,
2013-05-12 13:01:00,63.0,16.1,30.20,NE,41,5.4,5.4,16,0.00,,,0.00,VWS V14.01,2013-05-12 18:01:00,
2013-05-12 13:07:00,62.6,15.8,30.20,NNE,27,0.0,2.7,16,0.00,,,0.00,VWS V14.01,2013-05-12 18:07:00,
2013-05-12 13:12:00,61.9,15.2,30.20,NNE,33,5.4,5.4,16,0.00,,,0.00,VWS V14.01,2013-05-12 18:12:00,
2013-05-12 13:18:00,60.6,15.6,30.20,North,357,7.2,7.2,17,0.00,,,0.00,VWS V14.01,2013-05-12 18:18:00,
2013-05-12 13:24:00,62.8,15.9,30.20,WNW,296,5.4,5.4,16,0.00,,,0.00,VWS V14.01,2013-05-12 18:24:00,
2013-05-12 13:29:00,63.9,16.8,30.20,NW,321,0.0,2.7,16,0.00,,,0.00,VWS V14.01,2013-05-12 18:29:00,
2013-05-12 13:35:00,62.4,15.7,30.20,NNW,346,8.1,8.1,16,0.00,,,0.00,VWS V14.01,2013-05-12 18:35:00,
2013-05-12 13:40:00,61.5,14.9,30.20,NE,38,0.0,2.7,16,0.00,,,0.00,VWS V14.01,2013-05-12 18:40:00,
2013-05-12 13:46:00,61.3,14.8,30.20,NE,44,6.3,6.3,16,0.00,,,0.00,VWS V14.01,2013-05-12 18:46:00,
2013-05-12 13:51:00,61.2,14.6,30.20,NW,306,7.2,7.2,16,0.00,,,0.00,VWS V14.01,2013-05-12 18:51:00,
2013-05-12 13:57:00,61.5,14.9,30.20,NE,37,0.0,4.0,16,0.00,,,0.00,VWS V14.01,2013-05-12 18:57:00,
2013-05-12 14:02:00,63.0,16.1,30.20,NW,308,5.4,5.4,16,0.00,,,0.00,VWS V14.01,2013-05-12 19:02:00,
2013-05-12 14:08:00,64.2,17.1,30.20,North,0,5.4,5.4,16,0.00,,,0.00,VWS V14.01,2013-05-12 19:08:00,
2013-05-12 14:13:00,63.1,11.5,30.17,NNW,330,7.2,7.2,13,0.00,,,0.00,VWS V14.01,2013-05-12 19:13:00,
2013-05-12 14:18:00,63.1,16.2,30.17,NW,312,0.0,0.0,16,0.00,,,0.00,VWS V14.01,2013-05-12 19:18:00,
2013-05-12 14:24:00,63.5,16.5,30.17,NE,44,0.0,3.1,16,0.00,,,0.00,VWS V14.01,2013-05-12 19:24:00,
2013-05-12 14:29:00,63.9,16.8,30.17,North,6,0.0,0.0,16,0.00,,,0.00,VWS V14.01,2013-05-12 19:29:00,
2013-05-12 14:35:00,65.1,16.4,30.17,NW,310,0.0,3.1,15,0.00,,,0.00,VWS V14.01,2013-05-12 19:35:00,
2013-05-12 14:40:00,64.6,15.9,30.17,NW,325,0.0,4.5,15,0.00,,,0.00,VWS V14.01,2013-05-12 19:40:00,
2013-05-12 14:46:00,64.9,12.9,30.17,NW,308,8.1,8.1,13,0.00,,,0.00,VWS V14.01,2013-05-12 19:46:00,
2013-05-12 14:51:00,64.0,12.2,30.17,North,10,6.3,6.3,13,0.00,,,0.00,VWS V14.01,2013-05-12 19:51:00,
2013-05-12 14:56:00,63.3,11.7,30.17,NNE,30,7.2,7.2,13,0.00,,,0.00,VWS V14.01,2013-05-12 19:56:00,
2013-05-12 15:01:00,63.1,11.5,30.17,NE,36,0.0,3.6,13,0.00,,,0.00,VWS V14.01,2013-05-12 20:01:00,
2013-05-12 15:07:00,63.3,16.4,30.17,NW,316,8.1,8.1,16,0.00,,,0.00,VWS V14.01,2013-05-12 20:07:00,
2013-05-12 15:12:00,64.2,12.4,30.17,NW,321,0.0,2.7,13,0.00,,,0.00,VWS V14.01,2013-05-12 20:12:00,
2013-05-12 15:18:00,64.8,16.1,30.17,WNW,292,0.0,0.0,15,0.00,,,0.00,VWS V14.01,2013-05-12 20:18:00,
2013-05-12 15:24:00,63.7,11.9,30.17,NE,52,6.3,6.3,13,0.00,,,0.00,VWS V14.01,2013-05-12 20:24:00,
2013-05-12 15:29:00,63.7,11.9,30.17,NW,312,0.0,0.0,13,0.00,,,0.00,VWS V14.01,2013-05-12 20:29:00,
2013-05-12 15:35:00,63.1,16.2,30.17,North,10,8.1,8.1,16,0.00,,,0.00,VWS V14.01,2013-05-12 20:35:00,
2013-05-12 15:41:00,62.6,11.1,30.17,NE,37,0.0,3.1,13,0.00,,,0.00,VWS V14.01,2013-05-12 20:41:00,
2013-05-12 15:46:00,63.1,11.5,30.14,NW,322,6.3,6.3,13,0.00,,,0.00,VWS V14.01,2013-05-12 20:46:00,
2013-05-12 15:52:00,63.3,11.7,30.14,WNW,290,6.3,6.3,13,0.00,,,0.00,VWS V14.01,2013-05-12 20:52:00,
2013-05-12 15:57:00,63.7,11.9,30.14,NNE,24,6.3,6.3,13,0.00,,,0.00,VWS V14.01,2013-05-12 20:57:00,
2013-05-12 16:03:00,63.3,11.7,30.14,NE,41,0.0,3.1,13,0.00,,,0.00,VWS V14.01,2013-05-12 21:03:00,
2013-05-12 16:09:00,62.6,11.1,30.14,NNW,337,10.7,10.7,13,0.00,,,0.00,VWS V14.01,2013-05-12 21:09:00,
2013-05-12 16:14:00,62.8,11.2,30.14,NW,316,0.0,4.0,13,0.00,,,0.00,VWS V14.01,2013-05-12 21:14:00,
2013-05-12 16:19:00,62.8,11.2,30.14,NE,35,4.5,5.4,13,0.00,,,0.00,VWS V14.01,2013-05-12 21:19:00,
2013-05-12 16:24:00,62.1,12.3,30.14,NNE,12,5.4,5.4,14,0.00,,,0.00,VWS V14.01,2013-05-12 21:24:00,
2013-05-12 16:30:00,62.2,12.5,30.14,West,274,7.2,7.2,14,0.00,,,0.00,VWS V14.01,2013-05-12 21:30:00,
2013-05-12 16:35:00,62.8,11.2,30.14,NW,323,9.8,9.8,13,0.00,,,0.00,VWS V14.01,2013-05-12 21:35:00,
2013-05-12 16:41:00,62.4,12.6,30.14,NW,315,9.8,9.8,14,0.00,,,0.00,VWS V14.01,2013-05-12 21:41:00,
2013-05-12 16:46:00,61.9,12.2,30.14,NW,308,5.4,5.4,14,0.00,,,0.00,VWS V14.01,2013-05-12 21:46:00,
2013-05-12 16:52:00,62.2,12.5,30.14,NNW,348,6.3,6.3,14,0.00,,,0.00,VWS V14.01,2013-05-12 21:52:00,
2013-05-12 16:57:00,61.9,12.2,30.14,North,353,0.0,3.6,14,0.00,,,0.00,VWS V14.01,2013-05-12 21:57:00,
2013-05-12 17:03:00,62.1,12.3,30.14,NW,326,6.3,6.3,14,0.00,,,0.00,VWS V14.01,2013-05-12 22:03:00,
2013-05-12 17:09:00,62.2,12.5,30.14,NNE,30,5.4,5.4,14,0.00,,,0.00,VWS V14.01,2013-05-12 22:09:00,
2013-05-12 17:14:00,61.7,12.1,30.14,NW,308,0.0,3.1,14,0.00,,,0.00,VWS V14.01,2013-05-12 22:14:00,
2013-05-12 17:20:00,61.3,11.8,30.14,NW,305,6.3,6.3,14,0.00,,,0.00,VWS V14.01,2013-05-12 22:20:00,
2013-05-12 17:26:00,61.5,11.9,30.14,North,353,0.0,0.0,14,0.00,,,0.00,VWS V14.01,2013-05-12 22:26:00,
2013-05-12 17:31:00,61.7,12.1,30.14,NW,313,0.0,4.0,14,0.00,,,0.00,VWS V14.01,2013-05-12 22:31:00,
2013-05-12 17:37:00,61.7,12.1,30.14,North,353,0.0,0.0,14,0.00,,,0.00,VWS V14.01,2013-05-12 22:37:00,
2013-05-12 17:42:00,61.3,11.8,30.14,NW,322,5.4,5.4,14,0.00,,,0.00,VWS V14.01,2013-05-12 22:42:00,
2013-05-12 17:48:00,61.3,11.8,30.14,NNE,18,0.0,0.0,14,0.00,,,0.00,VWS V14.01,2013-05-12 22:48:00,
2013-05-12 17:53:00,61.3,11.8,30.14,NNW,341,0.0,0.0,14,0.00,,,0.00,VWS V14.01,2013-05-12 22:53:00,
2013-05-12 17:58:00,61.5,11.9,30.14,NNW,343,6.3,6.3,14,0.00,,,0.00,VWS V14.01,2013-05-12 22:58:00,
2013-05-12 18:04:00,61.3,11.8,30.14,North,11,0.0,3.1,14,0.00,,,0.00,VWS V14.01,2013-05-12 23:04:00,
2013-05-12 18:09:00,61.5,11.9,30.14,NW,319,0.0,2.2,14,0.00,,,0.00,VWS V14.01,2013-05-12 23:09:00,
2013-05-12 18:15:00,61.7,12.1,30.11,NNE,31,0.0,2.7,14,0.00,,,0.00,VWS V14.01,2013-05-12 23:15:00,
2013-05-12 18:20:00,62.2,12.5,30.11,North,357,5.4,5.4,14,0.00,,,0.00,VWS V14.01,2013-05-12 23:20:00,
2013-05-12 18:25:00,61.9,12.2,30.11,NNE,29,0.0,0.0,14,0.00,,,0.00,VWS V14.01,2013-05-12 23:25:00,
2013-05-12 18:30:00,63.5,11.8,30.11,NNW,340,0.0,0.0,13,0.00,,,0.00,VWS V14.01,2013-05-12 23:30:00,
2013-05-12 18:36:00,63.1,11.5,30.11,NE,44,0.0,0.0,13,0.00,,,0.00,VWS V14.01,2013-05-12 23:36:00,
2013-05-12 18:41:00,63.1,11.5,30.11,ENE,66,0.0,0.0,13,0.00,,,0.00,VWS V14.01,2013-05-12 23:41:00,
2013-05-12 18:46:00,63.5,11.8,30.11,North,11,0.0,0.0,13,0.00,,,0.00,VWS V14.01,2013-05-12 23:46:00,
2013-05-12 18:51:00,63.5,11.8,30.11,NE,45,0.0,0.0,13,0.00,,,0.00,VWS V14.01,2013-05-12 23:51:00,
2013-05-12 18:57:00,64.6,12.7,30.11,North,0,0.0,0.0,13,0.00,,,0.00,VWS V14.01,2013-05-12 23:57:00,
2013-05-12 19:02:00,63.9,12.1,30.11,NNE,25,0.0,0.0,13,0.00,,,0.00,VWS V14.01,2013-05-13 00:02:00,
2013-05-12 19:08:00,65.7,13.5,30.11,NW,324,0.0,0.0,13,0.00,,,0.00,VWS V14.01,2013-05-13 00:08:00,
2013-05-12 19:14:00,66.7,12.5,30.11,NW,326,0.0,0.0,12,0.00,,,0.00,VWS V14.01,2013-05-13 00:14:00,
2013-05-12 19:19:00,66.6,12.4,30.11,NNW,345,0.0,2.2,12,0.00,,,0.00,VWS V14.01,2013-05-13 00:19:00,
2013-05-12 19:25:00,65.3,13.2,30.11,NNW,346,0.0,0.0,13,0.00,,,0.00,VWS V14.01,2013-05-13 00:25:00,
2013-05-12 19:30:00,63.1,11.5,30.11,NNW,346,0.0,0.0,13,0.00,,,0.00,VWS V14.01,2013-05-13 00:30:00,
2013-05-12 19:36:00,60.1,10.8,30.11,NNW,345,0.0,0.0,14,0.00,,,0.00,VWS V14.01,2013-05-13 00:36:00,
2013-05-12 19:41:00,58.8,9.8,30.11,NNW,345,0.0,0.0,14,0.00,,,0.00,VWS V14.01,2013-05-13 00:41:00,
2013-05-12 19:47:00,57.9,9.0,30.11,NNW,346,0.0,0.0,14,0.00,,,0.00,VWS V14.01,2013-05-13 00:47:00,
2013-05-12 19:53:00,57.2,8.4,30.11,NNW,344,0.0,0.0,14,0.00,,,0.00,VWS V14.01,2013-05-13 00:53:00,
2013-05-12 19:58:00,56.3,12.1,30.11,NNW,345,0.0,0.0,17,0.00,,,0.00,VWS V14.01,2013-05-13 00:58:00,
2013-05-12 20:04:00,55.6,11.5,30.11,NNW,346,0.0,0.0,17,0.00,,,0.00,VWS V14.01,2013-05-13 01:04:00,
2013-05-12 20:10:00,54.7,12.0,30.11,NNW,346,0.0,0.0,18,0.00,,,0.00,VWS V14.01,2013-05-13 01:10:00,
2013-05-12 20:15:00,54.1,11.6,30.11,NNW,345,0.0,0.0,18,0.00,,,0.00,VWS V14.01,2013-05-13 01:15:00,
2013-05-12 20:21:00,53.2,10.9,30.11,NNW,346,0.0,0.0,18,0.00,,,0.00,VWS V14.01,2013-05-13 01:21:00,
2013-05-12 20:26:00,52.7,13.9,30.11,NNW,345,0.0,0.0,21,0.00,,,0.00,VWS V14.01,2013-05-13 01:26:00,
2013-05-12 20:32:00,52.0,15.4,30.11,NNW,345,0.0,0.0,23,0.00,,,0.00,VWS V14.01,2013-05-13 01:32:00,
2013-05-12 20:38:00,51.4,20.3,30.11,NNW,345,0.0,0.0,29,0.00,,,0.00,VWS V14.01,2013-05-13 01:38:00,
2013-05-12 20:43:00,50.7,21.2,30.11,NNW,346,0.0,0.0,31,0.00,,,0.00,VWS V14.01,2013-05-13 01:43:00,
2013-05-12 20:49:00,50.2,22.9,30.11,NNW,345,0.0,0.0,34,0.00,,,0.00,VWS V14.01,2013-05-13 01:49:00,
2013-05-12 20:54:00,49.8,24.6,30.11,NNW,345,0.0,0.0,37,0.00,,,0.00,VWS V14.01,2013-05-13 01:54:00,
2013-05-12 21:00:00,49.1,24.0,30.11,NNW,345,0.0,0.0,37,0.00,,,0.00,VWS V14.01,2013-05-13 02:00:00,
2013-05-12 21:06:00,48.6,24.1,30.11,NNW,346,0.0,0.0,38,0.00,,,0.00,VWS V14.01,2013-05-13 02:06:00,
2013-05-12 21:11:00,48.2,24.4,30.11,NNW,346,0.0,0.0,39,0.00,,,0.00,VWS V14.01,2013-05-13 02:11:00,
2013-05-12 21:16:00,47.8,24.7,30.11,NNW,346,0.0,0.0,40,0.00,,,0.00,VWS V14.01,2013-05-13 02:16:00,
2013-05-12 21:21:00,47.5,25.0,30.11,NNW,346,0.0,0.0,41,0.00,,,0.00,VWS V14.01,2013-05-13 02:21:00,
2013-05-12 21:26:00,47.1,24.6,30.11,NNW,346,0.0,0.0,41,0.00,,,0.00,VWS V14.01,2013-05-13 02:26:00,
2013-05-12 21:32:00,46.6,24.2,30.14,NNW,345,0.0,0.0,41,0.00,,,0.00,VWS V14.01,2013-05-13 02:32:00,
2013-05-12 21:38:00,46.2,23.8,30.14,NNW,346,0.0,0.0,41,0.00,,,0.00,VWS V14.01,2013-05-13 02:38:00,
2013-05-12 21:43:00,45.9,24.1,30.14,NNW,346,0.0,0.0,42,0.00,,,0.00,VWS V14.01,2013-05-13 02:43:00,
2013-05-12 21:49:00,45.3,23.6,30.14,NNW,345,0.0,0.0,42,0.00,,,0.00,VWS V14.01,2013-05-13 02:49:00,
2013-05-12 21:54:00,44.8,23.1,30.14,NNW,345,0.0,0.0,42,0.00,,,0.00,VWS V14.01,2013-05-13 02:54:00,
2013-05-12 22:00:00,44.2,23.2,30.14,NNW,345,0.0,0.0,43,0.00,,,0.00,VWS V14.01,2013-05-13 03:00:00,
2013-05-12 22:06:00,43.7,22.7,30.14,NNW,346,0.0,0.0,43,0.00,,,0.00,VWS V14.01,2013-05-13 03:06:00,
2013-05-12 22:11:00,43.3,22.9,30.14,NNW,345,0.0,0.0,44,0.00,,,0.00,VWS V14.01,2013-05-13 03:11:00,
2013-05-12 22:17:00,43.0,22.6,30.14,NNW,345,0.0,0.0,44,0.00,,,0.00,VWS V14.01,2013-05-13 03:17:00,
2013-05-12 22:22:00,42.8,23.5,30.14,NNW,345,0.0,0.0,46,0.00,,,0.00,VWS V14.01,2013-05-13 03:22:00,
2013-05-12 22:27:00,42.4,23.1,30.14,NNW,345,0.0,0.0,46,0.00,,,0.00,VWS V14.01,2013-05-13 03:27:00,
2013-05-12 22:32:00,42.3,23.5,30.14,NNW,345,0.0,0.0,47,0.00,,,0.00,VWS V14.01,2013-05-13 03:32:00,
2013-05-12 22:38:00,41.9,23.2,30.14,NNW,345,0.0,0.0,47,0.00,,,0.00,VWS V14.01,2013-05-13 03:38:00,
2013-05-12 22:43:00,41.5,23.3,30.14,NNW,346,0.0,0.0,48,0.00,,,0.00,VWS V14.01,2013-05-13 03:43:00,
2013-05-12 22:49:00,41.4,23.2,30.14,NNW,345,0.0,0.0,48,0.00,,,0.00,VWS V14.01,2013-05-13 03:49:00,
2013-05-12 22:55:00,41.2,23.0,30.14,NNW,345,0.0,0.0,48,0.00,,,0.00,VWS V14.01,2013-05-13 03:55:00,
2013-05-12 23:00:00,41.0,23.3,30.14,NNW,345,0.0,0.0,49,0.00,,,0.00,VWS V14.01,2013-05-13 04:00:00,
2013-05-12 23:01:00,41.0,23.3,30.14,NNW,346,0.0,0.0,49,0.00,,,0.00,VWS V14.01,2013-05-13 04:01:00,
2013-05-12 23:04:00,40.8,23.1,30.14,NNW,345,0.0,0.0,49,0.00,,,0.00,VWS V14.01,2013-05-13 04:04:00,
2013-05-12 23:05:00,40.8,23.1,30.14,NNW,346,0.0,0.0,49,0.00,,,0.00,VWS V14.01,2013-05-13 04:05:00,
2013-05-12 23:08:00,40.6,23.0,30.14,NNW,346,0.0,0.0,49,0.00,,,0.00,VWS V14.01,2013-05-13 04:08:00,
2013-05-12 23:09:00,40.6,23.0,30.14,NNW,346,0.0,0.0,49,0.00,,,0.00,VWS V14.01,2013-05-13 04:09:00,
2013-05-12 23:14:00,40.5,23.3,30.14,NNW,345,0.0,0.0,50,0.00,,,0.00,VWS V14.01,2013-05-13 04:14:00,
2013-05-12 23:20:00,40.3,23.6,30.14,NNW,345,0.0,0.0,51,0.00,,,0.00,VWS V14.01,2013-05-13 04:20:00,
2013-05-12 23:25:00,40.3,23.6,30.14,NNW,345,0.0,0.0,51,0.00,,,0.00,VWS V14.01,2013-05-13 04:25:00,
2013-05-12 23:31:00,39.9,23.3,30.14,NNW,346,0.0,0.0,51,0.00,,,0.00,VWS V14.01,2013-05-13 04:31:00,
2013-05-12 23:36:00,39.7,23.1,30.14,NNW,345,0.0,0.0,51,0.00,,,0.00,VWS V14.01,2013-05-13 04:36:00,
2013-05-12 23:42:00,39.4,23.2,30.14,NNW,345,0.0,0.0,52,0.00,,,0.00,VWS V14.01,2013-05-13 04:42:00,
2013-05-12 23:48:00,39.2,23.1,30.14,NNW,345,0.0,0.0,52,0.00,,,0.00,VWS V14.01,2013-05-13 04:48:00,
2013-05-12 23:53:00,39.2,23.1,30.14,NNW,345,0.0,0.0,52,0.00,,,0.00,VWS V14.01,2013-05-13 04:53:00,
2013-05-12 23:59:00,39.0,23.8,30.14,NNW,345,0.0,0.0,54,0.00,,,0.00,VWS V14.01,2013-05-13 04:59:00,